Starlink 1556

operational
NORAD ID: 46033 Int'l Des: 2020-055 Owner: SPXS Country: US Constellation: starlink
LEOCIRCULARSTARLINK_TYPE

Starlink 1556について

説明を読み込み中...

リアルタイム位置

3D地球を読み込み中...

次回通過

高度履歴

Altitude vs Time

uPlot chart will show altitude changes over time

軌道要素

1 46033U 20055G 25303.29825340 .00000452 00000-0 49253-4 0 9992
2 46033 53.0556 351.9665 0001330 94.7099 265.4042 15.06400185289217
Epoch: Oct 30, 2025 • Age: 19 hours

現在のステータス

高度 564.6 km
速度 7.58 km/s
衛星直下点 -48.24°S, 137.51°W
打ち上げ日 Aug 7, 2020
運用期間 5.2 years
タイプ internet

技術仕様

分類 Payload
質量 260.00 kg
乾燥質量 248.00 kg
総質量 260.00 kg
長さ 0.20 m
直径 2.80 m
スパン 9.00 m
形状 Box + pan
製造者 SPXS
バスタイプ Starlink
フェーズステータス In Orbit
所有者/国 SPXS/US

大規模コンステレーション

Loading constellations...